Current weather by "City, St" or "zip code"  
 

Current Conditions: Tunica, Tunica Municipal Airport, MS

Fair


41.0 F

Last Updated on Oct 31 2020, 1:55 am CDT
Humidity: 93%
Wind Speed: N 0.0 mph
Barometer 30.29 in
Dewpoint: 39.2 F
Visibility: 10.00 mi
Precip: --
Heat Index: NA
Wind Chill: NA
Current conditions at:

Tunica, Tunica Municipal Airport, MS (KUTA)

Lat: 34.68083 Lon: 90.34639

Local Radar Image active severe weather and emergency alerts image image weather storm and storm spotter reports image weather observation monitoring service image
Local
Radar
Active
Alerts
Storm Reports Obs
Monitoring

Sign-up For Email & Text Message Weather Alert Notification Services



Advertise Here

Observation History for Tunica, Tunica Municipal Airport, MS


Time Wind
(mph)
Vis
(mi)
Weather Precip (in) Temperature (F) Relative
Humidity
Wind
Chill
(F)
Heat
Index
(F)
Pressure
Air Dwpt altimeter
(in)
sea level
(mb)
Rmks
1:55 am CDT N 0.0 10.00 Fair -- 41.0 39.2 93% NA NA 30.29 M
12:55 am CDT N 0.0 10.00 Fair -- 41.0 41.0 100% NA NA 30.29 M
11:55 pm CDT N 0.0 10.00 Fair -- 41.0 41.0 100% NA NA 30.31 M
10:55 pm CDT N 0.0 NULL NULL -- 43.0 41.0 93% NA NA 30.30 M
9:55 pm CDT N 3.5 10.00 Light Snow -- 45.0 41.0 87% NA NA 30.30 M
8:55 pm CDT N 3.5 10.00 Light Snow -- 45.0 42.8 93% NA NA 30.29 M
7:55 pm CDT N 3.5 10.00 Light Snow -- 45.0 42.8 93% NA NA 30.28 M
6:55 pm CDT N 4.6 10.00 Heavy Rain -- 46.0 42.8 87% 44 NA 30.27 M
5:55 pm CDT N 5.8 10.00 Heavy Rain -- 52.0 41.0 67% 50 NA 30.27 M
4:55 pm CDT N 6.9 10.00 Heavy Rain -- 55.0 41.0 59% 53 NA 30.27 M
3:55 pm CDT N 8.1 10.00 Heavy Rain -- 55.0 39.2 55% 53 NA 30.28 M
2:55 pm CDT NE 12.7 G 17.3 7.00 Heavy Rain -- 55.0 41.0 59% 52 NA 30.28 M
1:55 pm CDT NE 10.4 10.00 Heavy Rain -- 54.0 41.0 63% 51 NA 30.30 M
12:55 pm CDT N 12.7 G 17.3 7.00 Heavy Rain -- 52.0 41.0 67% 48 NA 30.32 M
11:55 am CDT N 12.7 7.00 Heavy Rain -- 50.0 41.0 71% 45 NA 30.34 M
10:55 am CDT N 9.2 7.00 Heavy Rain -- 46.0 41.0 82% 41 NA 30.37 M
9:55 am CDT N 9.2 5.00 Heavy Snow -- 45.0 37.4 76% 40 NA 30.38 M
8:55 am CDT N 9.2 4.00 Light Snow -- 41.0 37.4 87% 35 NA 30.37 M
7:55 am CDT N 8.1 5.00 Light Snow -- 37.0 35.6 93% 31 NA 30.28 M
6:55 am CDT NW 5.8 7.00 Light Snow -- 37.0 35.6 93% 32 NA 30.21 M
5:55 am CDT NW 6.9 5.00 Light Snow -- 39.0 37.4 93% 34 NA 30.18 M
4:55 am CDT NW 10.4 7.00 Light Snow -- 43.0 39.2 87% 37 NA 30.15 M
3:55 am CDT NW 8.1 7.00 Light Snow -- 45.0 41.0 87% 41 NA 30.16 M
2:55 am CDT NW 9.2 7.00 Light Snow -- 45.0 41.0 87% 40 NA 30.15 M

Regional Weather Observation


West Memphis, West Memphis Municipal Airport, AR (KAWM)

Fair
42.0 F

Fletcher Field, Clarksdale, MS (KCKM)

NULL
43.0 F

Memphis International Airport, TN (KMEM)

Fair
45.0 F

Olive Branch, Olive Branch Airport, MS (KOLV)

Fog/Mist
41.0 F

Jonesboro, Jonesboro Municipal Airport, AR (KJBR)

Fair
42.0 F

Millington, Millington Municipal Airport, TN (KNQA)

Fair
43.0 F